www.pogodaiklimat.ru

Погода и климат >> Архив погоды >> Россия >> Чукотка >> Бухта Амбарчик


АРХИВ ПОГОДЫ в Бухте Амбарчик

Время (UTC), дата Ветер
(напр.,м/с)
 
Видим.   Явления Облачность Т
(С)
Тd
(С)
f
(%)
Тe
(С)
Тes
(С)
Комфортность P
(гПа)
Po
(гПа)
Тmin
(С)
Tmax
(С)
R
(мм)
R24
(мм)
S
(см)
09 13.09 Ю 4
{4}
20 км 3/0
[Ci fib]
+0.5 -4.7 68 -4 -4 1014.2 1011.7 +7.6
12 13.09 Ю 5
{7}
20 км 3/0
[Ci fib]
-0.2 -4.1 75 -6 -6 1013.9 1011.0
15 13.09 Ю 7
{9}
20 км 3/0
[Ci fib]
+0.9 -4.3 68 -6 -6 1013.2 1010.3
18 13.09 Ю 6
{11}
20 км 3/0
[Ci fib]
-0.3 -4.6 73 -7 -7 1012.4 1009.5
21 13.09 Ю 8-10
{10}
20 км 3/0
[Ci fib]
+2.5 -3.8 63 -4 -4 1011.0 1008.1 -1.2
00 14.09 Ю 10-13
{13}
20 км 8/0
[Ci fib]
+9.4 -9.2 26 +6 +6 1009.2 1006.4
03 14.09 ЮВ 7
{13}
20 км 9/0
[Ac trans Ci fib]
+10.9 -9.4 23 +8 +9 1007.5 1004.7
06 14.09 ЮВ 5
{10}
20 км 9/0
[Ac trans Ci fib]
+8.9 -7.8 30 +6 +6 1005.3 1002.5
09 14.09 ЮВ 6
{11}
20 км 9/0
[Ac trans Ci fib]
+4.9 -0.6 68 0 0 1004.7 1001.8 +11.6
12 14.09 Ю 8-10
{11}
20 км 9/0
[Ac trans Ci fib]
+6.9 -5.8 40 +3 +3 1004.4 1001.5
15 14.09 Ю 8-10
{13}
20 км 9/0
[Ac trans Ci fib]
+6.8 -4.3 45 +2 +2 1003.9 1001.0
18 14.09 Ю 6
{12}
50 км 9/6 600 м
[Sc Ac trans]
+8.0 -3.5 44 +5 +5 1003.6 1000.8
21 14.09 Ю 7
{12}
20 км 9/6 600 м
[Sc Ac trans]
+7.9 -1.9 50 +4 +4 1004.1 1001.3 +4.9
00 15.09 Ю 6
{10}
20 км 9/6 600 м
[Sc Ac trans]
+9.0 -2.0 46 +6 +6 1004.8 1002.0
03 15.09 Ю 4
{9}
20 км 9/6 600 м
[Sc Ac trans]
+11.5 -0.7 43 +10 +10 1005.2 1002.4
06 15.09 В 1
{6}
20 км 9/0
[Ac trans]
+11.5 +1.2 49 +12 +12 1005.8 1003.0
09 15.09 ЮВ 3
{5}
20 км 9/3 600 м
[Sc Ac trans]
+7.8 0.0 58 -14 -14 1006.7 1003.9 +12.2
12 15.09 ЮЗ 2
{5}
20 км 8/0
[Ac trans]
+8.6 +0.6 57 +7 +7 1007.8 1005.0
15 15.09 Ю 5
{7}
20 км 6/0
[Ac trans]
+6.0 -0.7 62 +2 +2 1008.7 1005.8
18 15.09 Ю 3
{7}
20 км 4/0
[Ac trans]
+6.9 -0.4 60 +4 +4 1009.7 1006.9
21 15.09 СЗ 1
{5}
20 км 6/0
[Ac trans Ci fib]
+6.6 +2.9 77 +6 +6 1011.0 1008.1 +4.1
00 16.09 СВ 2
{3}
20 км 6/0
[Ac trans Ci fib]
+7.4 -2.1 51 +6 +8 1012.1 1009.3
03 16.09 СВ 2
{3}
20 км 8/0
[Ac trans Ci fib]
+7.9 +2.4 68 +6 +8 1012.4 1009.6
06 16.09 В 3
{6}
20 км 6/0
[Ac trans Ci fib]
+7.9 +1.5 64 +5 +6 1012.8 1010.0
09 16.09 В 4
{5}
20 км 6/0
[Ac trans Ci fib]
+3.8 +1.0 82 -1 -1 1013.7 1010.8 +9.6
12 16.09 ЮВ 4
{5}
20 км 3/0
[Ci fib]
+2.8 +0.4 84 -2 -2 1014.6 1011.7
15 16.09 ЮВ 4
{7}
20 км 3/0
[Ci fib]
+5.6 +1.1 73 +2 +2 1014.8 1011.9
18 16.09 В 2
{6}
20 км 3/0
[Ci fib]
-0.1 -1.7 89 -4 -4 1014.9 1012.0
21 16.09 ЮВ 3
{9}
20 км 4/3 600 м
[Sc Ci fib]
+7.0 +1.2 67 +4 +5 1015.0 1012.2 -0.2
00 17.09 В 4
{7}
20 км 4/0
[Ci fib]
+5.4 +1.9 78 +2 +3 1015.1 1012.2
03 17.09 В 6
{11}
20 км 4/0
[Ci fib]
+8.6 +2.4 65 +5 +6 1014.6 1011.8
06 17.09 В 4
{11}
20 км 4/0
[Ci fib]
+6.9 +2.6 74 +3 +4 1014.3 1011.5
09 17.09 ЮВ 4
{8}
20 км 4/3 600 м
[Sc Ci fib]
+2.5 +0.9 89 -2 -2 1014.8 1011.9 +9.5
12 17.09 В 5
{7}
20 км 3/0
[Ci fib]
+2.6 +0.8 88 -3 -3 1014.8 1011.9
15 17.09 В 5
{7}
20 км 3/0
[Ci fib]
+1.1 +0.3 94 -5 -5 1014.9 1012.0
18 17.09 ЮВ 4
{7}
10 км 4/0
[Ci fib]
-0.5 -1.2 95 -6 -6 1015.4 1012.5
21 17.09 В 8-12
{12}
10 км 9/0
[Ci fib]
+0.7 +0.2 96 -7 -7 1015.7 1012.8 -0.6
00 18.09 В 8-12
{13}
10 км 9/4 600 м
[Sc Ci fib]
+2.0 +1.1 94 -5 -5 1015.8 1012.9
03 18.09 В 10-14
{14}
20 км 6/3 600 м
[Sc Ci fib]
+2.3 +0.4 87 -5 -5 1015.4 1012.5
06 18.09 В 11-15
{15}
4000 м дымка 6/3 100 м
[Cu med, cong Ci fib]
+0.4 -0.6 93 -8 -8 1015.6 1012.7
09 18.09 В 10-13
{16}
20 км 8/3 100 м
[Cu med, cong Ci fib]
-0.5 -1.5 93 -9 -9 1016.7 1013.8 +3.9
12 18.09 В 8-11
{14}
20 км 9/5 300 м
[Sc Ci fib]
+0.1 -1.5 89 -7 -7 1017.4 1014.5
15 18.09 В 6
{12}
20 км 6/0
[Ci fib]
-1.1 -2.5 90 -8 -8 1017.8 1014.9
18 18.09 В 8-11
{14}
20 км 9/8 200 м
[St Ac trans]
0.0 -1.6 89 -8 -8 1018.4 1015.5
21 18.09 В 7-10
{12}
4000 м слаб. ливневой снег 9/9 200 м
[Cb cap]
+0.1 -1.2 91 -7 -7 1019.3 1016.3 -1.3 0.0
00 19.09 В 8-10
{11}
20 км {ливн. осадки} 8/8 200 м
[St]
+0.9 -1.1 86 -6 -6 1020.2 1017.2
03 19.09 В 6
{11}
20 км 9/9 200 м
[St]
+1.5 -0.6 86 -5 -5 1020.8 1017.8
06 19.09 В 6
{9}
20 км 9/9 200 м
[St]
+0.8 -1.0 88 -6 -6 1021.4 1018.4
09 19.09 В 5
{9}
10 км {ливн. осадки} 9/9 100 м
[St]
-0.2 -1.0 94 -7 -7 1022.0 1019.0 +1.7 0.2
12 19.09 В 6
{7}
4000 м слаб. ливневой снег 10/10 100 м
[Cb cap]
-0.5 -0.9 97 -7 -7 1022.4 1019.4
15 19.09 СВ 4
{7}
4000 м слаб. ливневой снег 10/10 100 м
[Cb cap]
-0.4 -0.8 97 -6 -6 1022.6 1019.6
18 19.09 В 3
{7}
4000 м слаб. ливневой снег 10/10 100 м
[Cb cap]
-0.6 -1.0 97 -6 -6 1022.6 1019.6
21 19.09 СВ 4
{5}
10 км {ливн. осадки} 10/10 100 м
[St]
-0.1 -0.7 96 -6 -6 1022.7 1019.7 -0.6 0.2
00 20.09 С 4
{6}
20 км {ливн. осадки} 9/9 600 м
[Sc]
+1.0 -1.7 82 -4 -4 1022.5 1019.5
03 20.09 С 5
{6}
20 км 10/10 300 м
[Sc]
+1.4 -0.7 86 -4 -4 1021.6 1018.6
06 20.09 С 6
{8}
10 км 10/10 100 м
[St]
+0.5 -1.6 86 -6 -6 1020.7 1017.7

 

Местоположение метеостанции Бухта Амбарчик (Чукотка, Россия): широта 69.62 долгота 162.30 высота над уровнем моря 23 м.

В архиве по умолчанию представлена погода в Бухте Амбарчик за последнюю неделю. Архивные данные за месяц целиком и за предыдущие месяцы, начиная с января 2011 года, Вы можете получить, выбрав интересующий диапазон дат из раскрывающегося списка и нажав кнопку "Ввод!".


*Определитесь, кто Вы:
робот инопланетянин человек

Внимание! Время в таблицах - всемирное. Для получения местного времени необходимо прибавить поправку, которая равна 12 ч.

Смотрите также архив погоды в соседних городах и на ближайших метеорологических станциях:

Погода в Черском (Якутия, Россия) (107 км)
Погода в Анюйске (Чукотка, Россия) (145 км)
Погода в Раучуе (Чукотка, Россия) (164 км)
Погода в Константиновской (Чукотка, Россия) (170 км)
Погода в Колымской (Якутия, Россия) (177 км)
Погода в Островном (Чукотка, Россия) (182 км)
Погода на Айон Острове (Чукотка, Россия) (218 км)
Погода в Билибино (Чукотка, Россия) (240 км)
Погода в Певеке (Чукотка, Россия) (305 км)
Погода в Андрюшкино (Якутия, Россия) (309 км)

Пояснения к столбцам:

Ветер - указаны скорость ветра в м/с - средняя за 10 мин, порывы в срок и между сроками (в фигурных скобках) и направление, откуда дует ветер: С - северный, СВ - северо-восточный, В - восточный, ЮВ - юго-восточный, Ю - южный, ЮЗ - юго-западный, З - западный, СЗ - северо-западный.
Видимость - горизонтальная дальность видимости в метрах или километрах. При видимости от 1 до 10 км при отсутствии осадков обычно наблюдается дымка, при ухудшении видимости до 1 км и менее - туман. В сухую погоду видимость может ухудшаться дымом, пылью или мглою.
Явления - указаны атмосферные явления, наблюдавшиеся в срок или в последний час перед сроком; фигурными скобками обозначены явления, наблюдавшиеся между сроками (за 1-3 часа до срока); квадратными скобками обозначены град или гололедные отложения с указанием их диаметра в мм.
Облачность - указаны через наклонную черту общая и нижняя облачность в баллах и высота нижней границы облаков в метрах; квадратными скобками обозначены формы облаков: Ci - перистые, Cs - перисто-слоистые, Cc - перисто-кучевые, Ac - высококучевые, As - высокослоистые, Sc - слоисто-кучевые, Ns - слоисто-дождевые, Cu - кучевые, Cb - кучево-дождевые. Подробнее классификацию облаков см. в Атласе облаков (PDF).
T - Температура воздуха - температура, измеренная на высоте 2 м над землей.
Td - Температура точки росы - температура, при понижении до которой содержащийся в воздухе водяной пар достигнет насыщения.
f - Относительная влажность воздуха - влажноcть воздуха, измеренная на высоте 2 м над землей.
Te - Эффективная температура - температура, которую ощущает одетый по сезону человек в тени. Характеристика душности погоды. При расчете учитывается влияние влажности воздуха и скорости ветра на теплоощущения человека.
Tes - Эффективная температура на солнце - температура, которую ощущает человек, с поправкой на солнечный нагрев. Характеристика знойности погоды. Зависит от высоты солнца над горизонтом, облачности и скорости ветра. Ночью, в пасмурную погоду, а также при ветре 12 м/с и более поправка равна нулю.
P - Атмосферное давление - приведенное к уровню моря атмосферное давление.
Po - Атмосферное давление - измеренное на уровне метеостанции атмосферное давление.
Tmin - Минимальная температура - минимум температуры воздуха на высоте 2 м над землей.
Tmax - Максимальная температура - максимум температуры воздуха на высоте 2 м над землей.
R - Количество осадков - Количество выпавших осадков за период времени, мм. При наведении курсора мыши на число - период времени, за который выпало указанное количество осадков.
R24 - Количество осадков - Количество выпавших осадков за 24 часа, мм.
S - Снежный покров - Высота снежного покрова, см. При наведении курсора мыши на число - состояние снежного покрова и степень покрытия местности в баллах.